Weather History for KGZL - January, 2014

Change the Weather History Date:

Saturday, January 18, 2014

  Actual Average (KJSV) Record (KJSV)
Temperature  
Mean Temperature 43 °F -  
Max Temperature 62 °F 49 °F 72 °F (1951)
Min Temperature 24 °F 30 °F 6 °F (1977)
Degree Days  
Heating Degree Days 22    
Moisture  
Dew Point 15 °F    
Average Humidity 35    
Maximum Humidity 80    
Minimum Humidity 14    
Precipitation  
Precipitation 0.00 in - - ()
Sea Level Pressure  
Sea Level Pressure 30.03 in    
Wind  
Wind Speed 10 mph (WNW)    
Max Wind Speed 23 mph    
Max Gust Speed 33 mph    
Visibility 10 miles    
Events      
Averages and records for this station are not official NWS values.
T = Trace of Precipitation, MM = Missing Value Source: NWS Daily Summary

Daily Weather History Graph

Daily Weather History Graph

Search for Another Location

Airport or City:

Trip Planner

Search our weather history database for the weather conditions in past years. The results will help you decide how hot, cold, wet, or windy it might be!

Date:

Astronomy

Jan. 18, 2014 Rise Set
Actual Time 7:27 AM CST 5:34 PM CST
Civil Twilight 7:00 AM CST 6:01 PM CST
Nautical Twilight 6:29 AM CST 6:32 PM CST
Astronomical Twilight 5:58 AM CST 7:03 PM CST
Moon 8:09 PM CST (1/18) 8:34 AM CST (1/18)
Length of Visible Light 11h 01m
Length of Day
10h 06m
Waning Gibbous, 94% of the Moon is Illuminated
Jan 18
Waning Gibbous
Jan 23
Last Quarter
Jan 30
New
Feb 6
First Quarter
Feb 14
Full

Hourly Weather History & Observations

Time (CST) Temp. Windchill Dew Point Humidity Pressure Visibility Wind Dir Wind Speed Gust Speed Precip Events Conditions
12:15 AM 28.4 °F 24.6 °F 14.0 °F 55% 30.14 in 10.0 mi SSE 3.5 mph - N/A   Unknown
12:35 AM 28.4 °F 23.3 °F 10.4 °F 47% 30.13 in 10.0 mi SSE 4.6 mph - N/A   Unknown
12:55 AM 26.6 °F - 14.0 °F 59% 30.12 in 10.0 mi Calm Calm - N/A   Unknown
1:15 AM 26.6 °F 21.2 °F 15.8 °F 64% 30.12 in 10.0 mi ESE 4.6 mph - N/A   Unknown
1:35 AM 28.4 °F 22.2 °F 14.0 °F 55% 30.11 in 10.0 mi SE 5.8 mph - N/A   Unknown
1:55 AM 28.4 °F 23.3 °F 14.0 °F 55% 30.10 in 10.0 mi SE 4.6 mph - N/A   Unknown
2:15 AM 28.4 °F 22.2 °F 14.0 °F 55% 30.10 in 10.0 mi SE 5.8 mph - N/A   Unknown
2:35 AM 26.6 °F 19.1 °F 15.8 °F 64% 30.10 in 10.0 mi SE 6.9 mph - N/A   Unknown
2:55 AM 28.4 °F 23.3 °F 14.0 °F 55% 30.10 in 10.0 mi SE 4.6 mph - N/A   Unknown
3:15 AM 26.6 °F 21.2 °F 17.6 °F 69% 30.09 in 10.0 mi SE 4.6 mph - N/A   Unknown
3:35 AM 26.6 °F 21.2 °F 17.6 °F 69% 30.08 in 10.0 mi South 4.6 mph - N/A   Unknown
3:55 AM 26.6 °F - 17.6 °F 69% 30.07 in 10.0 mi Calm Calm - N/A   Unknown
4:15 AM 26.6 °F - 17.6 °F 69% 30.06 in 10.0 mi Calm Calm - N/A   Unknown
4:35 AM 24.8 °F 19.1 °F 19.4 °F 80% 30.06 in 10.0 mi ESE 4.6 mph - N/A   Unknown
4:55 AM 24.8 °F 20.5 °F 19.4 °F 80% 30.05 in 10.0 mi SSE 3.5 mph - N/A   Unknown
5:15 AM 24.8 °F - 17.6 °F 74% 30.04 in 10.0 mi Calm Calm - N/A   Unknown
5:35 AM 28.4 °F 23.3 °F 17.6 °F 64% 30.03 in 10.0 mi South 4.6 mph - N/A   Unknown
5:55 AM 35.6 °F 27.5 °F 15.8 °F 44% 30.02 in 10.0 mi SW 11.5 mph 17.3 mph N/A   Unknown
6:15 AM 39.2 °F 31.2 °F 14.0 °F 36% 30.02 in 10.0 mi SW 13.8 mph 19.6 mph N/A   Unknown
6:35 AM 41.0 °F 33.9 °F 14.0 °F 33% 30.02 in 10.0 mi SW 12.7 mph 19.6 mph N/A   Unknown
6:55 AM 41.0 °F 33.9 °F 14.0 °F 33% 30.02 in 10.0 mi SW 12.7 mph 17.3 mph N/A   Unknown
7:15 AM 41.0 °F 33.9 °F 14.0 °F 33% 30.01 in 10.0 mi SW 12.7 mph - N/A   Unknown
7:35 AM 39.2 °F 31.2 °F 14.0 °F 36% 30.01 in 10.0 mi SW 13.8 mph 19.6 mph N/A   Unknown
7:55 AM 39.2 °F 32.5 °F 14.0 °F 36% 30.00 in 10.0 mi SW 10.4 mph - N/A   Unknown
8:15 AM 41.0 °F 35.2 °F 14.0 °F 33% 30.00 in 10.0 mi SW 9.2 mph - N/A   Unknown
8:35 AM 42.8 °F 36.6 °F 14.0 °F 31% 30.00 in 10.0 mi SW 11.5 mph 17.3 mph N/A   Unknown
8:55 AM 44.6 °F 38.1 °F 14.0 °F 29% 29.99 in 10.0 mi SW 13.8 mph 21.9 mph N/A   Unknown
9:15 AM 46.4 °F 39.8 °F 14.0 °F 27% 29.98 in 10.0 mi WSW 16.1 mph 25.3 mph N/A   Unknown
9:35 AM 48.2 °F - 14.0 °F 25% 29.99 in 10.0 mi West 19.6 mph 26.5 mph N/A   Unknown
9:55 AM 50.0 °F - 14.0 °F 24% 29.99 in 9.0 mi WSW 16.1 mph 27.6 mph N/A   Unknown
10:15 AM 51.8 °F - 14.0 °F 22% 29.99 in 9.0 mi West 17.3 mph 27.6 mph N/A   Unknown
10:35 AM 53.6 °F - 14.0 °F 21% 29.99 in 10.0 mi West 20.7 mph 32.2 mph N/A   Unknown
10:55 AM 53.6 °F - 14.0 °F 21% 29.98 in 10.0 mi WSW 21.9 mph 33.4 mph N/A   Unknown
11:15 AM 55.4 °F - 15.8 °F 21% 29.97 in 9.0 mi West 15.0 mph 27.6 mph N/A   Unknown
11:35 AM 55.4 °F - 15.8 °F 21% 29.97 in 10.0 mi West 19.6 mph 29.9 mph N/A   Unknown
11:55 AM 55.4 °F - 15.8 °F 21% 29.97 in 10.0 mi West 18.4 mph 29.9 mph N/A   Unknown
12:15 PM 57.2 °F - 15.8 °F 20% 29.95 in 10.0 mi West 20.7 mph 27.6 mph N/A   Unknown
12:35 PM 59.0 °F - 14.0 °F 17% 29.93 in 10.0 mi West 23.0 mph 33.4 mph N/A   Unknown
12:55 PM 59.0 °F - 14.0 °F 17% 29.93 in 10.0 mi West 19.6 mph 29.9 mph N/A   Unknown
1:15 PM 60.8 °F - 14.0 °F 16% 29.92 in 10.0 mi West 17.3 mph 28.8 mph N/A   Unknown
1:35 PM 62.6 °F - 14.0 °F 15% 29.92 in 9.0 mi West 18.4 mph 25.3 mph N/A   Unknown
1:55 PM 62.6 °F - 15.8 °F 16% 29.91 in 10.0 mi West 16.1 mph 24.2 mph N/A   Unknown
2:15 PM 62.6 °F - 14.0 °F 15% 29.91 in 10.0 mi NW 21.9 mph 31.1 mph N/A   Unknown
2:35 PM 62.6 °F - 14.0 °F 15% 29.92 in 10.0 mi NW 23.0 mph 29.9 mph N/A   Unknown
2:55 PM 62.6 °F - 14.0 °F 15% 29.93 in 10.0 mi WNW 17.3 mph 28.8 mph N/A   Unknown
3:15 PM 62.6 °F - 14.0 °F 15% 29.93 in 10.0 mi NW 17.3 mph 27.6 mph N/A   Unknown
3:35 PM 62.6 °F - 14.0 °F 15% 29.94 in 10.0 mi NW 21.9 mph 31.1 mph N/A   Unknown
3:55 PM 60.8 °F - 14.0 °F 16% 29.95 in 10.0 mi NW 21.9 mph 29.9 mph N/A   Unknown
4:15 PM 60.8 °F - 14.0 °F 16% 29.96 in 10.0 mi WNW 18.4 mph 27.6 mph N/A   Unknown
4:35 PM 59.0 °F - 10.4 °F 15% 29.97 in 10.0 mi NW 20.7 mph 28.8 mph N/A   Unknown
4:55 PM 59.0 °F - 10.4 °F 15% 29.98 in 10.0 mi NW 20.7 mph 27.6 mph N/A   Unknown
5:15 PM 57.2 °F - 8.6 °F 14% 29.99 in 10.0 mi NNW 17.3 mph 31.1 mph N/A   Unknown
5:35 PM 55.4 °F - 10.4 °F 17% 30.00 in 10.0 mi NNW 13.8 mph 23.0 mph N/A   Unknown
5:55 PM 51.8 °F - 14.0 °F 22% 30.02 in 10.0 mi North 8.1 mph - N/A   Unknown
6:15 PM 48.2 °F - 15.8 °F 27% 30.03 in 10.0 mi NNW 4.6 mph - N/A   Unknown
6:35 PM 46.4 °F 42.4 °F 14.0 °F 27% 30.04 in 10.0 mi NW 8.1 mph - N/A   Unknown
6:55 PM 48.2 °F - 14.0 °F 25% 30.05 in 10.0 mi NW 10.4 mph - N/A   Unknown
7:15 PM 48.2 °F - 15.8 °F 27% 30.06 in 10.0 mi NNW 11.5 mph 19.6 mph N/A   Unknown
7:35 PM 50.0 °F - 15.8 °F 26% 30.07 in 10.0 mi NNW 13.8 mph 19.6 mph N/A   Unknown
7:55 PM 50.0 °F - 15.8 °F 26% 30.07 in 10.0 mi NNW 15.0 mph 20.7 mph N/A   Unknown
8:15 PM 48.2 °F - 15.8 °F 27% 30.09 in 10.0 mi North 11.5 mph - N/A   Unknown
8:35 PM 48.2 °F - 15.8 °F 27% 30.10 in 10.0 mi North 15.0 mph 19.6 mph N/A   Unknown
8:55 PM 46.4 °F 41.1 °F 17.6 °F 32% 30.11 in 10.0 mi North 11.5 mph - N/A   Unknown
9:15 PM 46.4 °F 40.7 °F 17.6 °F 32% 30.13 in 10.0 mi North 12.7 mph 17.3 mph N/A   Unknown
9:35 PM 44.6 °F 38.4 °F 17.6 °F 34% 30.13 in 10.0 mi North 12.7 mph - N/A   Unknown
9:55 PM 44.6 °F 38.8 °F 17.6 °F 34% 30.14 in 10.0 mi NNW 11.5 mph 19.6 mph N/A   Unknown
10:15 PM 44.6 °F 37.8 °F 17.6 °F 34% 30.14 in 10.0 mi NNW 15.0 mph 20.7 mph N/A   Unknown
10:35 PM 44.6 °F 38.4 °F 17.6 °F 34% 30.15 in 10.0 mi NNW 12.7 mph 23.0 mph N/A   Unknown
10:55 PM 42.8 °F 36.2 °F 17.6 °F 36% 30.15 in 10.0 mi NNW 12.7 mph 19.6 mph N/A   Unknown
11:15 PM 41.0 °F 34.7 °F 19.4 °F 42% 30.16 in 10.0 mi NNW 10.4 mph 21.9 mph N/A   Unknown
11:35 PM 41.0 °F 34.3 °F 19.4 °F 42% 30.16 in 10.0 mi North 11.5 mph 16.1 mph N/A   Unknown
11:55 PM 39.2 °F 32.5 °F 19.4 °F 45% 30.16 in 10.0 mi North 10.4 mph - N/A   Unknown